Overview Statistics Trail Chart Weather Telemetry Raw packets
 

This is the latest recevied weather packets stored in our database for station/object OE6ATD-13. If no packets are shown the sender has not sent any weather packets the latest 10 day(s).

<< 17 18 19 20 21 22 23 >>
Time Temp. Humidity Pressure Rain* Wind** Luminosity Snow
1788435616 30° C 31% 1019.6 hPa 0 mm - 829 W/m² -
1788435027 30° C 31% 1019.5 hPa 0 mm - 841 W/m² -
1788434423 30° C 34% 1019.9 hPa 0 mm - 862 W/m² -
1788433819 29.44° C 32% 1020 hPa 0 mm - 855 W/m² -
1788433253 30° C 36% 1020.1 hPa 0 mm - 858 W/m² -
1788432625 29.44° C 39% 1020.2 hPa 0 mm - 862 W/m² -
1788432021 28.89° C 40% 1020.4 hPa 0 mm - 858 W/m² -
1788431417 29.44° C 40% 1020.4 hPa 0 mm - 854 W/m² -
1788430828 28.89° C 40% 1020.5 hPa 0 mm - 858 W/m² -
1788430224 28.33° C 41% 1020.5 hPa 0 mm - 843 W/m² -
1788429620 28.89° C 41% 1020.7 hPa 0 mm - 834 W/m² -
1788429016 28.33° C 42% 1020.8 hPa 0 mm - 823 W/m² -
1788428427 28.33° C 43% 1021 hPa 0 mm - 810 W/m² -
1788427822 27.78° C 44% 1021 hPa 0 mm - 791 W/m² -
1788427218 26.67° C 50% 1021.3 hPa 0 mm - 750 W/m² -
1788426629 26.67° C 53% 1021.3 hPa 0 mm - 733 W/m² -
1788426029 25.56° C 55% 1021.3 hPa 0 mm - 701 W/m² -
1788425424 25.56° C 57% 1021.5 hPa 0 mm - 678 W/m² -
1788424820 25° C 60% 1021.4 hPa 0 mm - 650 W/m² -
1788424215 24.44° C 60% 1021.3 hPa 0 mm - 627 W/m² -
1788423627 24.44° C 62% 1021.5 hPa 0 mm - 603 W/m² -
1788423022 23.89° C 62% 1021.4 hPa 0 mm - 572 W/m² -
1788422418 23.89° C 65% 1021.4 hPa 0 mm - 555 W/m² -
1788421829 22.22° C 68% 1021.5 hPa 0 mm - 520 W/m² -
1788421225 21.67° C 73% 1021.5 hPa 0 mm - 366 W/m² -

* Rain latest hour (hover to see other rain measurements)
** Current wind speed in m/s (hover to see current wind gust speed)